Date String (YYYY-MM-DD hh:mm:ss) UTC,Instrument flags,Ambient pressure (hPa),Sample flow (lpm),Bypass flow (lpm),Sample temperature (°C),Ambient temperature (°C),ASC tube jacket temperature (°C),LED temperature (°C),Box temperature (°C),Sample RH (%),Span deviation,Mass concentration (μg/m³),Mass concentration (μg/m³),Mass concentration (μg/m³)
DateTimeUTC,F1_M11,P_M11,Q1_M11,Q2_M11,T1_M11,T2_M11,T3_M11,T4_M11,T5_M11,U1_M11,ZSPAN_M11,X0_M11,X2_M11,X1_M11
2023-01-14 08:00:00,,0822.7,5.00,0.00,24.2,22.7,00.0,33.1,26.0,13.0,0005.0,0017.29,0010.88,0010.15
2023-01-14 08:01:00,,0822.6,5.00,0.00,24.2,22.7,00.0,33.1,26.0,13.1,0004.7,0017.35,0010.93,0010.18
2023-01-14 08:02:00,,0822.7,5.00,0.00,24.2,22.8,00.0,33.1,26.0,13.3,0005.1,0017.58,0010.96,0010.19
2023-01-14 08:03:00,,0822.7,5.00,0.00,24.2,22.8,00.0,33.1,26.0,13.3,0005.2,0017.21,0010.98,0010.20
2023-01-14 08:04:00,,0822.6,5.01,0.00,24.2,22.8,00.0,33.1,26.0,13.2,0005.5,0017.65,0011.03,0010.24
2023-01-14 08:05:00,,0822.6,5.00,0.00,24.2,22.8,00.0,33.1,26.0,13.2,0005.4,0017.82,0011.19,0010.37
2023-01-14 08:06:00,,0822.6,5.00,0.00,24.2,22.8,00.0,33.1,25.9,13.3,0004.7,0017.87,0011.27,0010.46
2023-01-14 08:07:00,,0822.6,5.01,0.00,24.2,22.8,00.0,33.0,26.0,13.3,0004.7,0017.67,0011.29,0010.48
2023-01-14 08:08:00,,0822.6,5.00,0.00,24.2,22.8,00.0,33.0,26.0,13.2,0004.7,0016.86,0011.24,0010.44
2023-01-14 08:09:00,,0822.6,5.00,0.00,24.2,22.8,00.0,33.0,26.0,13.1,0005.1,0015.99,0011.19,0010.41
2023-01-14 08:10:00,,0822.6,5.00,0.00,24.2,22.8,00.0,33.0,25.9,13.1,0005.4,0016.10,0011.19,0010.40
2023-01-14 08:11:00,,0822.6,5.00,0.00,24.2,22.8,00.0,33.0,26.0,13.1,0005.4,0016.26,0011.28,0010.45
2023-01-14 08:12:00,,0822.6,5.00,0.00,24.1,22.8,00.0,33.0,25.9,13.1,0005.3,0016.39,0011.32,0010.48
2023-01-14 08:13:00,,0822.6,5.00,0.00,24.1,22.8,00.0,33.0,25.9,13.1,0004.9,0016.89,0011.38,0010.54
2023-01-14 08:14:00,,0822.5,5.00,0.00,24.1,22.8,00.0,33.0,26.0,13.1,0004.6,0017.11,0011.41,0010.60
2023-01-14 08:15:00,,0822.5,5.00,0.00,24.2,22.8,00.0,33.0,26.0,13.2,0004.4,0016.92,0011.48,0010.69
2023-01-14 08:16:00,,0822.6,5.00,0.00,24.2,22.8,00.0,33.0,26.0,13.2,0004.9,0016.76,0011.49,0010.73
2023-01-14 08:17:00,,0822.6,5.01,0.00,24.2,22.8,00.0,33.0,25.9,13.3,0005.1,0016.90,0011.53,0010.74
2023-01-14 08:18:00,,0822.6,5.01,0.00,24.1,22.8,00.0,33.0,25.9,13.3,0004.9,0017.15,0011.57,0010.78
2023-01-14 08:19:00,,0822.6,5.00,0.00,24.2,22.8,00.0,33.0,26.0,13.2,0004.7,0017.52,0011.71,0010.92
2023-01-14 08:20:00,,0822.6,5.00,0.00,24.2,22.8,00.0,33.0,26.0,13.3,0004.5,0018.24,0011.87,0011.03
2023-01-14 08:21:00,,0822.6,5.01,0.00,24.1,22.8,00.0,33.0,25.9,13.2,0003.9,0018.32,0011.97,0011.11
2023-01-14 08:22:00,,0822.5,5.00,0.00,24.1,22.8,00.0,33.0,25.9,13.2,0004.0,0018.65,0011.97,0011.13
2023-01-14 08:23:00,,0822.4,5.00,0.00,24.1,22.7,00.0,33.0,25.9,13.2,0003.9,0019.13,0011.97,0011.15
2023-01-14 08:24:00,,0822.4,5.00,0.00,24.1,22.7,00.0,33.0,26.0,13.1,0004.4,0018.63,0011.97,0011.18
2023-01-14 08:25:00,,0822.4,5.00,0.00,24.1,22.7,00.0,33.0,26.0,13.0,0004.5,0018.32,0012.00,0011.20
2023-01-14 08:26:00,,0822.4,4.99,0.00,24.1,22.8,00.0,33.0,26.0,12.9,0004.3,0018.22,0011.94,0011.14
2023-01-14 08:27:00,,0822.4,5.01,0.00,24.1,22.8,00.0,33.0,25.9,12.8,0004.2,0017.86,0011.82,0011.02
2023-01-14 08:28:00,,0822.5,5.01,0.00,24.1,22.8,00.0,33.0,26.0,12.8,0004.2,0017.87,0011.68,0010.89
2023-01-14 08:29:00,,0822.5,5.01,0.00,24.1,22.8,00.0,33.0,26.0,12.9,0004.2,0017.60,0011.64,0010.88
2023-01-14 08:30:00,,0822.4,5.00,0.00,24.1,22.8,00.0,33.0,26.0,13.1,0004.5,0017.40,0011.64,0010.87
2023-01-14 08:31:00,,0822.4,4.99,0.00,24.1,22.8,00.0,33.0,26.0,13.1,0004.6,0017.05,0011.63,0010.86
2023-01-14 08:32:00,,0822.4,4.99,0.00,24.1,22.7,00.0,33.0,26.0,13.1,0004.4,0017.08,0011.55,0010.81
2023-01-14 08:33:00,,0822.4,5.00,0.00,24.1,22.7,00.0,33.0,26.0,13.1,0003.7,0016.71,0011.47,0010.76
2023-01-14 08:34:00,,0822.3,5.00,0.00,24.1,22.7,00.0,33.0,26.0,13.0,0003.4,0015.85,0011.42,0010.73
2023-01-14 08:35:00,,0822.3,5.00,0.00,24.1,22.7,00.0,33.0,25.9,13.0,0003.2,0015.86,0011.39,0010.68
2023-01-14 08:36:00,,0822.2,4.99,0.00,24.1,22.7,00.0,33.0,25.9,12.9,0003.3,0015.98,0011.36,0010.64
2023-01-14 08:37:00,,0822.2,5.00,0.00,24.1,22.7,00.0,33.0,26.0,12.8,0004.1,0015.92,0011.31,0010.57
2023-01-14 08:38:00,,0822.2,5.01,0.00,24.1,22.7,00.0,33.0,26.0,12.8,0004.0,0016.22,0011.28,0010.52
2023-01-14 08:39:00,,0822.3,5.01,0.00,24.1,22.7,00.0,33.0,26.0,12.8,0003.6,0016.25,0011.29,0010.54
2023-01-14 08:40:00,,0822.2,5.00,0.00,24.1,22.7,00.0,33.0,26.0,12.9,0004.4,0016.24,0011.31,0010.55
2023-01-14 08:41:00,,0822.2,4.99,0.00,24.1,22.7,00.0,33.0,26.0,13.1,0004.6,0016.25,0011.30,0010.54
2023-01-14 08:42:00,,0822.2,4.99,0.00,24.1,22.6,00.0,33.0,25.9,13.2,0004.5,0016.39,0011.30,0010.58
2023-01-14 08:43:00,,0822.2,5.00,0.00,24.1,22.6,00.0,33.0,25.9,13.3,0005.3,0016.76,0011.41,0010.70
2023-01-14 08:44:00,,0822.2,5.00,0.00,24.1,22.7,00.0,33.0,25.9,13.3,0005.4,0017.22,0011.57,0010.81
2023-01-14 08:45:00,,0822.2,4.99,0.00,24.1,22.7,00.0,33.0,25.9,13.3,0005.4,0017.53,0011.70,0010.90
2023-01-14 08:46:00,,0822.2,5.00,0.00,24.1,22.7,00.0,33.0,25.9,13.3,0005.1,0017.80,0011.81,0010.98
2023-01-14 08:47:00,,0822.4,5.02,0.00,24.1,22.7,00.0,32.9,25.9,13.3,0005.0,0017.67,0011.85,0011.05
2023-01-14 08:48:00,,0822.4,5.01,0.00,24.1,22.7,00.0,33.0,25.9,13.4,0005.0,0018.22,0011.91,0011.11
2023-01-14 08:49:00,,0822.4,5.00,0.00,24.1,22.7,00.0,32.9,25.9,13.3,0005.0,0018.35,0011.97,0011.17
2023-01-14 08:50:00,,0822.4,5.00,0.00,24.1,22.7,00.0,32.9,25.9,13.0,0005.3,0018.58,0012.03,0011.21
2023-01-14 08:51:00,,0822.3,5.00,0.00,24.1,22.7,00.0,32.9,25.9,12.8,0005.4,0018.66,0012.04,0011.20
2023-01-14 08:52:00,,0822.1,4.99,0.00,24.1,22.7,00.0,32.9,25.9,13.1,0005.4,0018.59,0012.01,0011.20
2023-01-14 08:53:00,,0822.1,5.01,0.00,24.1,22.7,00.0,32.9,26.0,12.8,0005.4,0018.34,0011.90,0011.07
2023-01-14 08:54:00,,0822.1,5.00,0.00,24.1,22.7,00.0,32.9,26.0,12.5,0005.4,0017.50,0011.54,0010.74
2023-01-14 08:55:00,,0822.1,4.99,0.00,24.1,22.6,00.0,32.9,25.9,12.7,0005.6,0016.95,0011.28,0010.50
2023-01-14 08:56:00,,0822.1,5.00,0.00,24.0,22.6,00.0,32.9,25.9,12.8,0005.5,0016.95,0011.19,0010.41
2023-01-14 08:57:00,,0822.1,5.00,0.00,24.0,22.6,00.0,32.9,25.9,12.8,0005.3,0017.11,0011.14,0010.36
2023-01-14 08:58:00,,0822.1,5.01,0.00,24.0,22.6,00.0,32.9,25.9,13.0,0005.3,0017.30,0011.18,0010.40
2023-01-14 08:59:00,,0822.1,5.00,0.00,24.0,22.6,00.0,32.9,25.9,13.1,0005.3,0016.96,0011.26,0010.51
